Presure
160 167 166 148 163 156 171 171 157 167 173 167 154 177 178 163 177 172 185 192 186 163 214 211 183 219 208 237 246 221 216 200 211 201 198 196 188 189 180 178 182 157 180 193 189 195 193
152 164 172 162 157 151 162 151 150 159 164 168 130 177 165 176 179 158 185 183 179 164 178 179 186 186 191 191 203 205 220 248 212 215 215 224 198 183 187 189 187 188 189 187 187 185 181
140 153 159 157 157 163 153 157 168 162 167 167 158 167 159 166 175 189 200 145 183 189 176 177 192 190 182 177 183 191 193 200 198 210 236 229 218 225 234 218 215 180 209 176 182 176 172
149 146 144 162 150 158 152 161 161 161 164 160 162 170 162 162 170 174 175 180 179 159 172 175 169 186 160 171 171 167 174 184 179 184 200 196 206 220 222 229 221 215 211 202 185 173 191
154 152 164 164 173 149 160 162 160 149 150 163 159 156 166 159 162 164 177 151 167 171 168 174 174 171 157 157 149 171 174 174 179 192 190 187 184 186 197 189 206 213 206 209 209 180 175
142 150 151 153 144 153 156 154 158 149 162 161 162 153 165 156 162 174 173 167 171 167 180 159 174 180 166 151 161 182 178 202 183 177 196 190 172 168 169 180 185 177 193 211 207 198 199
157 153 134 167 167 160 151 151 153 148 163 160 155 155 156 149 144 148 157 173 148 153 147 158 168 166 189 174 181 177 179 174 176 183 198 158 183 195 179 181 151 190 200 193 186 192 200
152 160 157 159 156 151 154 157 151 160 162 162 158 163 160 155 160 158 156 140 158 185 157 160 151 168 169 179 178 191 189 182 165 197 200 191 188 183 187 196 184 199 189 196 198 196 198
148 150 162 144 152 146 152 162 160 158 158 160 150 170 165 161 145 140 156 161 153 155 158 175 167 183 173 176 173 179 194 168 173 194 189 195 185 202 193 199 213 215 180 202 170 198 201
145 160 155 153 164 149 155 143 160 149 160 147 154 164 166 162 161 129 162 144 161 145 171 159 166 174 173 179 190 198 166 177 194 202 202 206 189 204 209 206 205 198 204 212 221 222 199
159 147 162 151 153 152 159 154 155 154 159 138 142 167 163 166 168 128 161 150 172 165 141 170 165 177 183 203 197 184 172 203 209 210 203 199 209 206 212 223 214 213 207 211 217 213 228
151 147 157 160 143 161 156 162 146 142 160 162 163 166 149 152 128 159 148 164 145 145 192 159 171 183 214 210 179 189 228 201 222 245 219 223 234 270 285 261 241 229 234 242 237 224 225
154 153 145 135 157 155 155 156 143 158 133 165 158 145 158 154 145 144 161 166 150 199 185 191 176 175 207 208 212 231 224 211 235 274 372 369 405 403 396 407 427 420 415 412 278 272 259
134 158 153 140 156 157 159 149 148 150 162 164 158 165 155 145 146 157 147 165 188 187 175 170 178 179 178 224 241 244 266 275 410 417 419 187 388 392 373 376 369 321 329 368 395 379 358
162 143 135 155 149 154 148 152 152 159 162 160 170 160 167 155 138 150 164 203 200 180 177 211 216 180 248 225 281 395 408 421 401 411 411 407 409 393 126 371 381 379 353 334 323 325 373
152 163 160 159 163 144 155 160 157 166 162 126 147 167 147 164 176 164 190 190 176 186 191 192 222 244 259 364 445 432 422 423 409 403 406 383 386 361 339 332 335 353 356 346 334 330 316
163 165 162 169 139 151 160 153 161 154 145 145 141 150 149 148 201 158 181 183 207 201 192 217 217 266 390 441 434 423 395 406 409 393 396 404 403 401 386 369 366 350 339 334 333 325 317
135 171 161 147 154 159 152 160 159 177 152 143 153 138 156 187 186 188 194 188 168 223 199 242 260 451 441 436 427 418 402 394 408 402 404 393 394 393 380 368 374 366 352 340 323 319 314
162 146 154 161 166 161 161 144 130 156 149 145 132 166 198 143 203 204 178 182 219 230 235 268 448 432 430 410 433 407 399 396 394 388 389 382 376 374 362 358 358 357 347 340 334 324 308
155 156 158 157 156 161 151 126 148 155 159 140 175 162 155 200 155 167 193 224 207 230 267 449 425 433 415 402 405 387 393 386 380 372 368 369 359 356 357 355 349 345 344 330 329 323 316
152 160 166 137 160 135 166 160 148 152 141 151 174 181 213 157 168 201 185 226 232 248 457 435 440 438 413 414 397 392 391 374 363 362 355 351 347 347 365 368 371 376 378 386 329 324 317
172 154 154 169 140 136 170 158 150 141 168 185 198 131 177 196 188 209 224 225 237 481 446 442 429 430 408 410 395 391 393 374 357 347 343 339 337 337 339 343 352 371 365 381 396 327 313
159 163 164 145 165 166 168 154 140 155 149 165 166 154 166 195 197 223 219 224 411 464 459 444 416 416 383 399 393 385 379 370 356 342 339 337 336 346 333 340 337 363 354 373 381 387 384
154 160 140 168 159 160 158 154 184 175 194 169 169 185 198 187 205 215 222 242 383 375 430 408 392 399 404 408 388 382 370 364 348 337 336 332 324 321 324 323 325 321 346 341 354 354 361
149 159 172 163 173 149 141 154 178 182 173 157 197 163 199 210 209 220 233 380 373 398 424 401 384 364 355 405 389 371 366 359 348 337 330 329 323 317 317 316 322 316 323 330 334 331 331
132 168 167 160 161 141 131 181 173 162 136 197 164 199 205 208 211 226 254 369 367 364 403 396 390 376 364 344 388 377 367 358 350 342 331 333 326 322 321 315 309 308 308 302 323 320 325
165 163 169 169 139 128 182 174 181 146 180 175 200 203 204 222 219 235 372 366 354 355 359 388 383 383 372 357 375 380 371 363 357 346 333 326 325 328 322 318 318 312 313 308 310 309 320
167 159 172 142 140 183 172 160 140 192 174 205 194 200 210 214 227 241 327 355 337 343 343 337 363 368 365 390 368 348 329 368 361 354 346 340 330 325 324 328 321 316 312 311 309 314 314
161 172 142 157 137 175 167 139 187 193 188 184 202 199 220 218 233 355 344 346 337 333 338 330 338 351 359 355 355 396 367 339 317 353 354 349 342 338 331 328 327 325 325 323 320 311 305
Wind_Speed
43 46 41 28 34 26 41 40 32 40 44 38 32 37 34 25 33 29 32 34 28 29 33 35 34 35 33 36 42 50 56 63 67 69 72 77 82 83 83 85 87 86 88 89 92 92 93
41 46 48 37 33 33 39 37 34 35 39 40 22 49 36 43 43 36 42 34 31 31 29 30 35 35 35 33 38 37 41 47 57 62 68 75 78 77 75 79 82 83 86 86 87 91 92
33 44 42 36 39 43 34 36 45 41 43 44 37 43 46 46 53 57 52 36 43 38 32 36 38 39 41 41 45 48 45 46 49 52 56 62 68 70 70 81 84 83 87 83 89 93 91
46 42 37 42 33 42 37 44 43 43 47 45 48 51 44 47 53 54 50 49 48 39 42 45 42 45 43 49 48 48 52 58 56 57 61 60 64 65 69 69 71 78 80 83 86 88 93
45 47 53 48 45 37 42 45 43 39 41 50 46 49 56 48 54 52 58 43 50 49 48 54 53 52 50 52 51 63 63 62 64 68 69 71 68 70 68 73 77 77 82 82 82 88 91
41 42 43 41 37 42 45 45 51 43 55 54 54 49 58 53 58 68 65 59 63 58 69 51 65 64 62 54 59 78 77 67 75 69 72 74 66 64 70 80 72 78 78 82 85 88 89
53 52 35 57 51 48 43 45 49 48 60 58 52 54 55 57 54 57 61 76 45 56 44 61 78 80 76 91 86 86 89 88 89 90 82 63 76 81 86 87 86 90 89 83 83 90 93
50 56 54 49 45 44 47 53 51 61 63 63 61 66 62 62 67 69 69 44 71 70 56 73 61 89 91 94 93 89 91 91 78 89 92 92 85 91 94 95 87 94 89 88 100 98 98
46 47 48 42 48 43 52 56 59 60 61 65 64 72 70 70 68 51 68 80 73 72 77 89 90 93 90 103 102 104 97 93 104 99 104 96 97 104 107 108 107 106 98 96 93 105 101
43 58 46 48 57 47 54 48 62 58 67 63 69 73 75 74 76 43 81 63 90 57 97 82 97 102 103 108 103 101 96 115 114 110 111 112 112 117 117 117 116 100 111 110 110 115 104
60 38 56 44 45 50 60 59 59 64 69 62 66 73 75 78 81 51 84 79 95 95 56 102 93 109 116 103 108 103 106 114 115 117 120 119 120 122 125 128 126 122 115 115 120 115 120
46 41 53 55 46 60 60 65 56 59 73 74 74 76 77 79 49 87 81 96 72 76 99 91 111 121 106 110 120 128 115 123 124 121 128 126 122 126 126 127 127 133 126 133 127 130 128
49 48 44 46 57 60 61 60 60 72 54 78 75 64 78 82 82 78 99 101 90 101 108 113 119 116 119 121 124 122 128 132 131 133 103 97 79 81 81 77 73 78 80 80 127 132 130
35 55 52 50 59 61 62 60 64 69 77 78 78 83 82 85 87 84 83 108 106 107 119 118 127 122 130 125 126 132 136 135 84 76 72 27 60 71 77 79 76 88 86 77 75 80 90
57 41 46 58 56 59 61 65 68 77 78 78 84 86 91 95 74 84 111 98 104 124 126 120 123 133 134 134 140 104 87 72 73 65 61 58 48 56 34 64 65 63 69 76 83 83 65
48 59 59 61 65 59 64 71 75 78 79 59 83 91 91 105 103 111 110 115 124 130 126 122 127 132 140 117 72 69 63 60 58 57 54 56 46 52 61 64 62 58 60 66 71 75 79
56 58 59 62 58 59 68 68 76 72 69 85 88 93 85 91 103 107 117 126 122 120 132 131 135 147 102 69 62 57 61 52 49 50 51 49 46 40 45 52 53 62 59 63 66 70 74
47 57 53 53 57 64 65 74 74 79 81 86 96 78 103 114 117 118 112 124 122 124 135 141 146 69 65 59 53 48 47 50 44 42 40 40 42 37 37 43 46 48 54 62 67 67 72
51 49 51 60 69 67 70 70 64 79 86 94 72 104 99 84 106 110 124 126 126 134 140 145 67 67 58 58 47 43 40 40 39 39 37 34 34 35 32 40 42 44 45 51 59 64 69
48 48 52 58 60 67 68 59 79 81 89 81 103 108 96 104 95 122 125 130 132 137 146 67 71 56 56 51 44 44 37 35 36 37 37 32 31 34 31 30 37 41 41 47 54 57 62
46 54 62 61 64 65 72 73 83 87 76 91 107 92 105 99 126 124 136 139 142 148 63 65 53 45 49 40 36 34 32 33 34 35 32 31 29 30 24 23 22 21 19 27 49 52 58
57 48 54 65 68 61 75 77 85 79 96 98 91 67 111 112 121 131 138 140 147 54 63 53 51 46 42 36 36 28 28 31 26 30 30 32 26 25 24 24 22 21 21 17 25 46 54
51 55 61 65 68 71 78 80 78 85 95 103 112 100 117 116 127 134 136 138 90 58 47 46 52 44 47 35 32 28 26 24 20 26 28 28 25 19 23 22 19 7 10 12 14 20 37
50 58 60 68 66 73 78 86 84 95 93 107 113 110 113 122 129 134 140 149 91 87 56 56 53 46 38 34 30 29 24 21 22 26 26 27 22 23 25 21 19 22 15 15 12 15 25
57 62 66 63 75 79 74 80 92 96 93 101 108 115 119 130 130 139 143 91 86 72 54 53 52 50 43 29 26 27 26 25 23 27 27 28 25 24 26 24 21 23 17 17 16 22 24
55 63 65 65 70 75 70 83 94 102 77 106 115 115 126 132 135 141 148 88 81 74 54 51 50 45 43 40 26 23 22 22 20 25 29 29 27 29 26 25 27 28 27 28 25 27 31
60 66 68 69 71 66 79 85 94 86 105 111 115 123 129 140 140 144 86 81 79 73 64 52 47 43 40 38 30 25 24 23 21 20 24 31 34 32 28 28 27 29 32 32 32 32 35
59 63 69 74 69 82 85 97 82 104 109 115 112 123 139 136 142 143 102 79 80 74 67 63 51 45 41 33 33 31 30 23 22 23 23 26 31 35 37 36 31 29 32 34 36 38 38
61 71 72 75 73 83 91 78 97 104 106 113 124 123 139 138 144 90 85 75 74 70 64 64 59 51 43 37 33 28 26 26 27 23 23 26 27 30 33 35 36 37 38 37 36 38 41
Wind_Direction
322 330 331 319 341 322 350 349 333 346 351 346 331 346 344 307 339 327 335 335 314 290 316 313 291 309 297 298 285 277 274 267 268 264 263 261 260 261 264 266 265 267 267 268 268 269 270
316 325 329 331 333 322 340 328 323 332 340 344 292 343 331 344 339 302 333 328 312 297 307 304 309 301 298 288 294 283 285 285 278 276 271 273 265 262 264 265 267 267 268 268 269 269 269
310 316 321 328 332 335 325 330 339 337 340 341 331 342 332 335 340 344 337 299 327 319 312 310 312 306 301 287 291 294 282 283 280 283 284 277 273 272 275 268 267 265 266 264 266 267 266
305 313 312 321 323 327 326 332 331 334 337 333 334 337 329 328 333 335 329 328 323 299 313 311 299 307 287 295 292 286 290 292 280 279 283 278 277 277 275 272 270 270 268 264 260 263 267
299 308 312 313 321 314 327 332 330 314 316 329 326 325 334 323 326 324 330 302 314 314 310 313 312 304 296 292 285 304 300 298 298 290 287 287 278 279 278 274 270 269 263 265 265 264 264
302 307 314 315 312 317 324 327 328 316 328 328 329 319 326 319 324 329 327 321 320 314 318 306 313 305 307 288 306 308 308 288 301 298 283 283 284 283 276 277 274 271 273 267 265 264 264
288 298 305 304 316 317 318 319 323 317 327 324 322 319 317 313 313 314 316 326 304 311 294 314 317 318 309 314 311 311 308 308 305 301 286 277 288 273 282 282 262 277 270 272 272 266 263
289 289 301 308 316 314 316 321 319 323 324 323 322 322 319 315 318 318 318 304 316 316 313 313 309 317 314 309 309 301 300 303 304 291 287 290 271 289 289 277 278 269 277 270 266 267 265
290 293 297 309 305 311 315 319 320 322 322 321 315 322 319 318 315 312 317 317 316 316 316 312 314 308 309 309 311 306 297 306 306 291 294 286 291 277 286 282 271 262 263 265 268 263 265
291 286 302 303 300 310 315 311 319 317 319 312 314 318 320 318 318 300 318 312 315 308 312 311 312 307 308 304 299 296 309 305 293 286 282 279 292 281 275 278 277 280 276 270 259 258 261
278 302 294 304 310 312 313 315 318 318 316 317 319 319 318 319 320 305 313 313 310 310 304 311 314 308 304 297 296 304 305 289 286 283 286 288 284 284 280 272 276 278 276 275 270 268 257
291 299 298 302 307 306 309 312 312 314 314 316 315 317 311 312 305 312 314 311 313 315 302 313 310 305 303 300 309 303 292 294 287 285 286 284 285 278 276 271 274 269 270 264 266 263 262
287 293 301 301 305 307 311 314 308 313 312 314 311 315 312 310 310 314 309 309 314 310 306 304 309 313 303 300 298 296 293 294 292 293 290 286 284 279 274 269 265 265 265 262 257 260 260
298 288 302 305 304 306 306 309 309 309 312 313 312 314 309 309 312 310 318 311 305 302 306 315 309 314 313 300 305 302 299 295 297 293 289 288 280 277 274 271 264 265 262 260 261 260 259
281 297 297 298 302 304 306 307 308 310 310 313 314 312 314 308 313 318 311 316 308 304 309 306 305 310 312 301 306 306 305 299 299 294 289 286 281 274 274 267 266 260 257 256 257 256 258
289 288 292 294 298 303 305 306 310 308 310 320 311 317 311 310 308 310 307 304 308 303 307 314 309 312 312 311 309 306 305 300 299 295 291 290 285 275 271 270 267 259 255 254 250 251 251
286 287 291 293 301 304 304 308 306 311 317 307 311 310 313 320 315 317 308 305 310 315 313 311 309 316 314 313 310 308 307 302 297 296 293 290 286 280 273 266 263 262 252 249 249 248 247
298 288 293 299 304 304 308 306 309 312 309 312 308 321 312 306 306 305 320 306 318 316 312 318 318 315 314 313 311 310 305 302 297 295 290 289 288 284 279 272 267 259 254 249 245 244 245
285 297 299 299 298 302 307 305 320 310 306 304 323 311 310 320 320 321 316 320 318 321 319 320 318 318 316 316 311 310 303 299 297 296 294 290 288 284 274 273 269 265 258 252 248 242 241
294 298 300 301 310 309 304 316 305 309 311 311 307 310 316 316 324 315 322 326 316 321 322 321 321 317 316 318 314 314 304 303 300 298 298 300 297 291 290 273 267 267 260 251 246 243 239
296 299 297 302 307 309 310 310 305 307 317 311 307 316 333 326 315 320 313 327 325 325 325 323 321 318 318 319 317 306 302 299 300 298 300 298 296 300 299 292 289 284 269 253 244 241 239
291 299 301 308 304 315 314 318 305 313 309 313 322 324 324 322 313 326 330 328 327 329 327 324 323 322 322 318 318 310 301 292 293 288 292 293 298 296 294 290 293 294 268 259 250 237 238
297 301 307 305 311 311 313 306 313 314 316 311 312 323 319 320 320 331 327 327 332 331 330 324 324 317 323 320 315 307 305 296 290 286 286 291 298 295 287 299 300 318 274 275 253 231 228
295 304 303 310 307 310 309 308 318 309 321 309 310 318 327 315 325 329 329 331 333 333 335 332 330 327 325 318 320 313 310 298 291 286 288 292 292 291 284 284 285 281 271 256 233 230 228
296 306 308 309 312 305 313 312 314 314 323 314 335 317 328 332 330 330 331 334 336 339 341 338 336 334 334 321 320 312 309 306 296 288 288 287 288 284 282 280 267 272 282 253 233 220 221
308 308 310 309 311 311 323 319 312 311 326 335 316 330 335 332 330 332 338 336 339 341 348 346 342 341 337 336 324 315 307 301 295 286 287 284 277 275 273 270 270 271 268 262 256 239 229
309 310 310 316 314 322 321 317 323 324 317 321 335 336 334 334 332 334 337 338 339 342 346 355 352 347 344 339 334 323 317 310 301 285 278 283 287 283 280 276 269 266 265 265 261 255 252
308 307 316 310 319 320 315 308 326 329 315 337 329 334 335 333 334 336 335 340 340 344 347 352 358 356 352 349 343 338 333 319 308 299 289 277 277 282 286 285 281 270 265 265 268 265 262
307 314 309 308 320 316 308 326 329 333 327 321 338 334 336 335 335 336 338 339 341 345 347 351 357 1 2 2 0 354 344 334 329 313 299 291 286 281 280 282 282 280 277 272 264 255 259